[[{"header":{"parameterUnit":"m.s-1","parameterCategory":1,"la1":30.2991,"la2":30.254,"lo1":-89.0895,"lo2":-89.0444,"dy":0.0017,"dx":0.0017,"nx":28,"ny":28,"refTime":"2025-02-27T09:00:00:Z","depth":0,"parameterNumber":2,"parameterNumberName":"U-component_of_WINDS"},"data":[0,0,0,0,0,0,0,0,0,0,0,0,0,0,0,0,0,0,0,0,0,0,0,0,0,0,0,0,0,0,0,0,0,0,0,0,0,0,0,0,0,0,0,0,0,0,0,0,0,0,0,0,0,0,0,0,0,0,0.4545,0.4545,0,0.4557,0.4557,0.4557,0.4546,0.4546,0.4545,0.4545,0.4556,0.4557,0.4558,0,0,0,0,0,0,0,0,0,0,0,0,0,0.4512,0.4513,0.4545,0.4545,0.4545,0.4557,0.4557,0.4558,0.4546,0.4546,0.4545,0.4545,0.4556,0.4557,0.4558,0,0,0,0,0,0,0,0,0,0,0,0,0,0.4526,0.4513,0.4545,0.4541,0.4541,0.4557,0.4557,0.4558,0.4547,0.4546,0.4545,0.4545,0.4556,0.4557,0.4558,0.4578,0,0,0.4561,0.4562,0,0,0,0,0,0,0,0,0.4525,0.4527,0.4542,0.4541,0.4541,0.455,0.455,0.4564,0.4547,0.4544,0.4545,0.4544,0.4555,0.4556,0.456,0.4579,0.4579,0.4561,0.4562,0.4563,0.4563,0,0,0,0,0,0,0,0.4524,0.4526,0.455,0.4542,0.4542,0.4539,0.454,0.4553,0.4553,0.4545,0.4544,0.4545,0.4554,0.4559,0.456,0.4579,0.4561,0.4562,0.4563,0.4564,0.4618,0.4619,0,0,0,0,0,0,0.4523,0.4526,0.4549,0.455,0.4531,0.454,0.4541,0.4548,0.4553,0.4553,0.4546,0.4545,0.4557,0.4558,0.456,0.4585,0.4563,0.4564,0.4564,0.4617,0.4618,0.4619,0,0,0,0,0,0,0.4523,0.4526,0.4549,0.4538,0.454,0.4541,0.4548,0.4548,0.4552,0.4554,0.4554,0.455,0.4557,0.4559,0.4574,0.4585,0.4564,0.4565,0.4616,0.4617,0.4618,0.4635,0,0,0,0,0,0,0.4522,0.4525,0.4533,0.4538,0.4541,0.4563,0.4549,0.4549,0.4554,0.4553,0.4558,0.4558,0.4556,0.4573,0.4575,0.4587,0.4566,0.4615,0.4617,0.4618,0.4633,0.4637,0.4639,0,0,0,0,0,0.4521,0.4536,0.4533,0.4536,0.455,0.4563,0.4565,0.4563,0.4555,0.4563,0.4565,0.4558,0.4584,0.4574,0.4577,0.4589,0.4614,0.4616,0.4618,0.4632,0.4636,0.4639,0,0,0,0,0,0,0.4532,0.4537,0.4534,0.4551,0.4557,0.4562,0.4571,0.4567,0.4575,0.4573,0.457,0.4571,0.4588,0.459,0.4579,0.461,0.4598,0.46,0.4608,0.4611,0.4614,0.4613,0.4567,0,0,0,0,0,0.4537,0.4547,0.4551,0.4566,0.4569,0.457,0.4575,0.4573,0.4579,0.4581,0.4584,0.4589,0.4599,0.4605,0.4614,0.4634,0.4635,0.4643,0.4646,0.4649,0.4651,0.4663,0.4667,0.4625,0.4625,0.4625,0,0,0.4546,0.455,0.4556,0.4568,0.4573,0.4584,0.4572,0.4583,0.4592,0.4583,0.4598,0.4601,0.4607,0.4625,0.4633,0.4627,0.4663,0.4651,0.4653,0.4654,0.4665,0.4669,0.4673,0.4626,0.4626,0.4625,0,0,0.4569,0.4573,0.4587,0.4592,0.4599,0.4599,0.4603,0.4608,0.461,0.4625,0.462,0.4629,0.4645,0.4651,0.4655,0.4683,0.4677,0.4686,0.4701,0.4713,0.4716,0.4719,0.473,0.4733,0.4688,0.4688,0.4688,0,0.458,0.4596,0.4594,0.4607,0.4613,0.4607,0.4621,0.4626,0.4635,0.464,0.4633,0.4655,0.4658,0.4678,0.4685,0.4689,0.4693,0.4685,0.4716,0.4719,0.4721,0.4732,0.4735,0.4689,0.4689,0.4689,0.4689,0,0.4609,0.4621,0.4632,0.4642,0.4649,0.4663,0.4663,0.4671,0.4669,0.467,0.4687,0.4691,0.4702,0.4706,0.4704,0.4727,0.4723,0.4716,0.4704,0.4727,0.4736,0.474,0.469,0.469,0.469,0.4689,0,0,0.4638,0.4649,0.4653,0.4659,0.4667,0.4676,0.469,0.4701,0.4708,0.4715,0.4727,0.4742,0.4736,0.4741,0.474,0.475,0.4773,0.4742,0.4742,0.4748,0.48,0.4805,0.4809,0.477,0.477,0.4771,0.4799,0,0.4663,0.4687,0.4687,0.4709,0.4721,0.4716,0.4728,0.4735,0.4737,0.4747,0.4749,0.4761,0.4752,0.4755,0.4765,0.4768,0.4783,0.4766,0.4781,0.4782,0.478,0.4814,0.482,0.4846,0.4803,0.4804,0.4804,0,0.4693,0.4703,0.4727,0.4735,0.474,0.4751,0.4762,0.4772,0.478,0.4781,0.4788,0.4785,0.48,0.4788,0.4808,0.4797,0.4803,0.4805,0.4806,0.4808,0.4794,0.4817,0.4854,0.4859,0.481,0.4809,0.4809,0,0.4714,0.4732,0.4749,0.4754,0.4764,0.4772,0.4776,0.4784,0.4791,0.48,0.4805,0.4816,0.4822,0.4831,0.4831,0.4822,0.4853,0.484,0.4854,0.4854,0.486,0.486,0.49,0.4864,0.4864,0.4864,0.4864,0,0.4741,0.4756,0.4759,0.4769,0.4787,0.4787,0.4804,0.4807,0.4814,0.4826,0.4822,0.4833,0.4833,0.4844,0.4845,0.4863,0.4865,0.4867,0.4867,0.4867,0.4867,0.4871,0.487,0.4865,0.4865,0.4865,0.4864,0,0.4766,0.4768,0.4787,0.4795,0.4798,0.481,0.4817,0.4828,0.483,0.4845,0.4849,0.4853,0.4866,0.4868,0.4883,0.4883,0.4905,0.4903,0.4902,0.4902,0.4916,0.4915,0.496,0.4967,0.4926,0.4927,0.4927,0,0.4783,0.4795,0.4805,0.4813,0.4818,0.483,0.4838,0.4839,0.4847,0.4858,0.4867,0.4881,0.4891,0.4913,0.4917,0.4929,0.4927,0.4943,0.4929,0.493,0.4928,0.4928,0.493,0.4945,0.4945,0.4946,0.4946,0,0.4813,0.4815,0.4826,0.4839,0.4848,0.4858,0.4867,0.4873,0.4876,0.4885,0.4899,0.4908,0.4924,0.4938,0.495,0.4954,0.4951,0.495,0.4954,0.4955,0.4955,0.4956,0.491,0.4949,0.4949,0.4949,0.4949,0.4948,0.4835,0.4846,0.4856,0.4869,0.4876,0.4885,0.4896,0.4901,0.4912,0.4926,0.4926,0.4942,0.4951,0.4967,0.4973,0.4986,0.4981,0.4986,0.4988,0.4989,0.4991,0.4953,0.4988,0.4988,0.4988,0.4987,0.4987,0,0.4866,0.4873,0.4885,0.4899,0.4909,0.4906,0.4916,0.4926,0.494,0.4949,0.496,0.4977,0.499,0.4996,0.5009,0.5018,0.5017,0.5022,0.5021,0.5023,0.4994,0.499,0.5023,0.5023,0.5023,0.5023,0.5023,0.5023,0.4884,0.4903,0.4905,0.4928,0.4934,0.495,0.4956,0.4965,0.4972,0.4991,0.5003,0.5007,0.5015,0.5029,0.5042,0.5043,0.5049,0.5054,0.5055,0.5028,0.5024,0.5021,0.5017,0.5055,0.5055,0.5082,0.5083,0.5083]},{"header":{"parameterUnit":"m.s-1","parameterCategory":1,"la1":30.2991,"la2":30.254,"lo1":-89.0895,"lo2":-89.0444,"dy":0.0017,"dx":0.0017,"nx":28,"ny":28,"refTime":"2025-02-27T09:00:00:Z","depth":0,"parameterNumber":3,"parameterNumberName":"V-component_of_WINDS"},"data":[0,0,0,0,0,0,0,0,0,0,0,0,0,0,0,0,0,0,0,0,0,0,0,0,0,0,0,0,0,0,0,0,0,0,0,0,0,0,0,0,0,0,0,0,0,0,0,0,0,0,0,0,0,0,0,0,0,0,-3.8587,-3.8588,0,-3.8622,-3.8623,-3.8623,-3.8588,-3.8587,-3.8585,-3.8584,-3.8619,-3.8621,-3.8623,0,0,0,0,0,0,0,0,0,0,0,0,0,-3.849,-3.8492,-3.8587,-3.8588,-3.8588,-3.8622,-3.8623,-3.8623,-3.8588,-3.8586,-3.8585,-3.8583,-3.8618,-3.8621,-3.8623,0,0,0,0,0,0,0,0,0,0,0,0,0,-3.8529,-3.8492,-3.8587,-3.8575,-3.8574,-3.8622,-3.8623,-3.8623,-3.8589,-3.8586,-3.8584,-3.8582,-3.8617,-3.862,-3.8624,-3.8685,0,0,-3.8634,-3.8635,0,0,0,0,0,0,0,0,-3.8527,-3.8533,-3.8576,-3.8576,-3.8575,-3.8599,-3.8601,-3.8644,-3.8589,-3.8583,-3.8584,-3.8581,-3.8614,-3.8617,-3.8628,-3.8687,-3.8689,-3.8634,-3.8636,-3.8637,-3.8638,0,0,0,0,0,0,0,-3.8524,-3.8531,-3.8601,-3.8577,-3.8576,-3.8567,-3.8571,-3.8609,-3.8609,-3.8583,-3.8581,-3.8586,-3.8613,-3.8625,-3.8629,-3.8689,-3.8634,-3.8637,-3.8639,-3.864,-3.8803,-3.8805,0,0,0,0,0,0,-3.8523,-3.8529,-3.86,-3.8602,-3.8545,-3.8571,-3.8575,-3.8593,-3.8609,-3.8609,-3.8587,-3.8584,-3.862,-3.8625,-3.863,-3.8705,-3.8637,-3.8641,-3.8642,-3.88,-3.8803,-3.8806,0,0,0,0,0,0,-3.8521,-3.853,-3.8598,-3.8565,-3.8573,-3.8575,-3.8596,-3.8595,-3.8607,-3.8612,-3.8612,-3.86,-3.8619,-3.8625,-3.8673,-3.8706,-3.8642,-3.8645,-3.8798,-3.8801,-3.8805,-3.8855,0,0,0,0,0,0,-3.8518,-3.8529,-3.8552,-3.8566,-3.8575,-3.8641,-3.8598,-3.8597,-3.8613,-3.8609,-3.8624,-3.8624,-3.8618,-3.8668,-3.8676,-3.8709,-3.8648,-3.8795,-3.8799,-3.8803,-3.885,-3.886,-3.8868,0,0,0,0,0,-3.8515,-3.8564,-3.8554,-3.8563,-3.8604,-3.8643,-3.8648,-3.864,-3.8616,-3.864,-3.8643,-3.8624,-3.8701,-3.8673,-3.8682,-3.8716,-3.8793,-3.8798,-3.8803,-3.8846,-3.8858,-3.8867,0,0,0,0,0,0,-3.8554,-3.8566,-3.8554,-3.8609,-3.8626,-3.8637,-3.8666,-3.8652,-3.8675,-3.867,-3.8659,-3.8663,-3.8713,-3.8719,-3.8688,-3.8778,-3.8743,-3.875,-3.8773,-3.8783,-3.8792,-3.879,-3.865,0,0,0,0,0,-3.8569,-3.86,-3.8608,-3.8656,-3.8665,-3.8664,-3.8681,-3.8674,-3.8689,-3.8696,-3.8702,-3.8719,-3.8747,-3.8765,-3.8791,-3.8851,-3.8854,-3.8879,-3.8888,-3.8895,-3.8902,-3.8936,-3.8947,-3.8823,-3.8823,-3.8823,0,0,-3.8601,-3.8611,-3.8631,-3.8664,-3.8676,-3.8708,-3.867,-3.8705,-3.8729,-3.8701,-3.8747,-3.8752,-3.8769,-3.8824,-3.8848,-3.8831,-3.8937,-3.8901,-3.8907,-3.891,-3.8942,-3.8954,-3.8964,-3.8827,-3.8826,-3.8825,0,0,-3.8675,-3.8685,-3.8727,-3.874,-3.8758,-3.8758,-3.8768,-3.8782,-3.8785,-3.8831,-3.8811,-3.8839,-3.8887,-3.8901,-3.8914,-3.8995,-3.8979,-3.9004,-3.905,-3.9083,-3.9093,-3.9102,-3.9132,-3.9143,-3.901,-3.9011,-3.9011,0,-3.8712,-3.8759,-3.875,-3.8788,-3.8804,-3.8781,-3.8824,-3.8836,-3.8862,-3.8874,-3.8854,-3.8915,-3.8925,-3.8983,-3.9003,-3.9014,-3.9026,-3.9003,-3.9092,-3.9101,-3.9109,-3.9138,-3.915,-3.9014,-3.9013,-3.9013,-3.9013,0,-3.8804,-3.8838,-3.8869,-3.8896,-3.8916,-3.8956,-3.8953,-3.8974,-3.8966,-3.8968,-3.9016,-3.9027,-3.9055,-3.9068,-3.906,-3.9126,-3.9115,-3.9094,-3.9058,-3.9124,-3.9151,-3.9162,-3.9018,-3.9017,-3.9016,-3.9015,0,0,-3.8903,-3.8926,-3.8938,-3.8951,-3.897,-3.8996,-3.9035,-3.9064,-3.9083,-3.9102,-3.9135,-3.9177,-3.9159,-3.9174,-3.9166,-3.9196,-3.9262,-3.9171,-3.9171,-3.9189,-3.9338,-3.9355,-3.9368,-3.9251,-3.9253,-3.9255,-3.9337,0,-3.8979,-3.9048,-3.9042,-3.9108,-3.914,-3.9119,-3.9154,-3.9169,-3.9173,-3.92,-3.9203,-3.9234,-3.9206,-3.9215,-3.9243,-3.9248,-3.9292,-3.9242,-3.9283,-3.9284,-3.9281,-3.9382,-3.9399,-3.9477,-3.9348,-3.9349,-3.9351,0,-3.9077,-3.9101,-3.917,-3.9186,-3.9199,-3.923,-3.9258,-3.9284,-3.9302,-3.9302,-3.932,-3.9309,-3.9349,-3.9312,-3.9369,-3.9335,-3.9351,-3.9356,-3.9359,-3.9364,-3.9322,-3.9391,-3.9501,-3.9513,-3.9367,-3.9366,-3.9365,0,-3.9144,-3.9193,-3.9242,-3.9253,-3.9273,-3.9296,-3.9305,-3.9321,-3.934,-3.9363,-3.9375,-3.9403,-3.9418,-3.944,-3.9437,-3.941,-3.9495,-3.9457,-3.9497,-3.9498,-3.9517,-3.9516,-3.9633,-3.9525,-3.9525,-3.9525,-3.9525,0,-3.923,-3.9274,-3.9273,-3.9302,-3.9351,-3.9344,-3.9392,-3.9399,-3.9414,-3.9445,-3.9428,-3.9458,-3.9451,-3.9481,-3.9478,-3.9526,-3.9533,-3.9535,-3.9534,-3.9537,-3.9537,-3.9549,-3.9544,-3.9528,-3.9527,-3.9527,-3.9526,0,-3.9314,-3.9315,-3.9366,-3.9382,-3.9387,-3.9422,-3.9435,-3.9464,-3.9466,-3.9506,-3.9515,-3.9519,-3.9553,-3.9552,-3.959,-3.9588,-3.9648,-3.964,-3.9643,-3.9642,-3.9683,-3.968,-3.9813,-3.983,-3.9709,-3.9711,-3.9711,0,-3.937,-3.9403,-3.9422,-3.9443,-3.9454,-3.9486,-3.9506,-3.95,-3.9521,-3.9545,-3.9571,-3.9604,-3.963,-3.9686,-3.9692,-3.9722,-3.9716,-3.976,-3.972,-3.9723,-3.9719,-3.9718,-3.9722,-3.9769,-3.977,-3.9771,-3.9772,0,-3.9469,-3.9468,-3.9496,-3.9526,-3.955,-3.9573,-3.9594,-3.9611,-3.9608,-3.9632,-3.9668,-3.9688,-3.9729,-3.9762,-3.9791,-3.9801,-3.9787,-3.9785,-3.9796,-3.98,-3.9801,-3.9803,-3.9666,-3.9782,-3.9781,-3.978,-3.9779,-3.9779,-3.9541,-3.957,-3.959,-3.9623,-3.9638,-3.9659,-3.9687,-3.9694,-3.9723,-3.9756,-3.9751,-3.9792,-3.981,-3.9848,-3.9861,-3.9892,-3.9877,-3.9892,-3.9897,-3.9901,-3.9907,-3.9795,-3.9897,-3.9897,-3.9897,-3.9896,-3.9896,0,-3.9641,-3.9652,-3.9683,-3.9714,-3.974,-3.9725,-3.9748,-3.9771,-3.9807,-3.9826,-3.9853,-3.9894,-3.9927,-3.9937,-3.9969,-3.9992,-3.9987,-4.0001,-4.0,-4.0003,-3.9918,-3.9906,-4.0005,-4.0005,-4.0005,-4.0005,-4.0005,-4.0005,-3.9696,-3.9746,-3.9748,-3.9805,-3.9817,-3.9857,-3.9871,-3.9891,-3.9906,-3.9954,-3.9982,-3.9988,-4.0004,-4.0037,-4.0067,-4.0069,-4.0082,-4.0099,-4.0099,-4.002,-4.0009,-3.9998,-3.9987,-4.0102,-4.0102,-4.0182,-4.0182,-4.0183]}]]